TimeCST,TemperatureF,Dew PointF,Humidity,Sea Level PressureIn,VisibilityMPH,Wind Direction,Wind SpeedMPH,Gust SpeedMPH,PrecipitationIn,Events,Conditions,WindDirDegrees,DateUTC
12:15 AM,-10.7,-17.5,72,30.61,10.0,West,4.6,-,N/A,,Clear,280,2013-12-07 06:15:00
12:35 AM,-9.6,-16.2,73,30.61,10.0,WNW,4.6,-,N/A,,Clear,300,2013-12-07 06:35:00
12:55 AM,-9.9,-17.0,71,30.60,10.0,WNW,4.6,-,N/A,,Clear,290,2013-12-07 06:55:00
1:15 AM,-11.6,-18.0,73,30.60,10.0,WNW,6.9,-,N/A,,Clear,300,2013-12-07 07:15:00
1:35 AM,-12.6,-18.8,74,30.59,10.0,West,5.8,-,N/A,,Clear,280,2013-12-07 07:35:00
1:55 AM,-12.5,-19.3,72,30.60,10.0,Calm,Calm,-,N/A,,Clear,0,2013-12-07 07:55:00
2:15 AM,-13.4,-19.1,75,30.60,10.0,Calm,Calm,-,N/A,,Clear,0,2013-12-07 08:15:00
2:35 AM,-14.1,-20.6,73,30.60,10.0,Calm,Calm,-,N/A,,Clear,0,2013-12-07 08:35:00
2:55 AM,-14.3,-20.7,73,30.59,10.0,WNW,3.5,-,N/A,,Clear,290,2013-12-07 08:55:00
3:15 AM,-14.8,-20.7,75,30.60,10.0,Calm,Calm,-,N/A,,Clear,0,2013-12-07 09:15:00
3:35 AM,-13.9,-19.7,75,30.59,10.0,Calm,Calm,-,N/A,,Clear,0,2013-12-07 09:35:00
3:55 AM,-13.5,-19.7,74,30.59,10.0,West,5.8,-,N/A,,Clear,280,2013-12-07 09:55:00
4:15 AM,-14.1,-20.4,73,30.60,10.0,West,3.5,-,N/A,,Clear,270,2013-12-07 10:15:00
4:35 AM,-13.2,-19.3,74,30.59,10.0,NW,3.5,-,N/A,,Clear,310,2013-12-07 10:35:00
4:55 AM,-13.9,-20.2,73,30.59,10.0,NW,4.6,-,N/A,,Clear,320,2013-12-07 10:55:00
5:15 AM,-13.9,-20.6,72,30.59,10.0,Calm,Calm,-,N/A,,Clear,0,2013-12-07 11:15:00
5:35 AM,-13.9,-20.2,73,30.59,10.0,Calm,Calm,-,N/A,,Clear,0,2013-12-07 11:35:00
5:55 AM,-14.6,-21.1,73,30.59,10.0,West,3.5,-,N/A,,Clear,260,2013-12-07 11:55:00
6:15 AM,-15.9,-22.4,73,30.59,10.0,West,3.5,-,N/A,,Clear,260,2013-12-07 12:15:00
6:35 AM,-15.0,-21.8,71,30.58,10.0,NW,5.8,-,N/A,,Clear,320,2013-12-07 12:35:00
6:55 AM,-15.0,-21.5,73,30.59,10.0,Calm,Calm,-,N/A,,Clear,0,2013-12-07 12:55:00
7:15 AM,-15.7,-22.2,73,30.59,10.0,Calm,Calm,-,N/A,,Clear,0,2013-12-07 13:15:00
7:35 AM,-15.0,-21.8,71,30.59,10.0,Calm,Calm,-,N/A,,Clear,0,2013-12-07 13:35:00
7:55 AM,-15.7,-22.0,73,30.58,10.0,Calm,Calm,-,N/A,,Clear,0,2013-12-07 13:55:00
8:15 AM,-15.2,-22.0,71,30.58,10.0,Calm,Calm,-,N/A,,Clear,0,2013-12-07 14:15:00
8:35 AM,-15.9,-22.5,72,30.59,10.0,SW,3.5,-,N/A,,Clear,230,2013-12-07 14:35:00
8:55 AM,-14.8,-21.1,73,30.59,10.0,Calm,Calm,-,N/A,,Clear,0,2013-12-07 14:55:00
9:15 AM,-12.6,-18.9,73,30.59,10.0,Calm,Calm,-,N/A,,Clear,0,2013-12-07 15:15:00
9:35 AM,-8.9,-14.8,75,30.60,10.0,Calm,Calm,-,N/A,,Clear,0,2013-12-07 15:35:00
9:55 AM,-6.0,-12.1,75,30.59,10.0,Calm,Calm,-,N/A,,Clear,0,2013-12-07 15:55:00
10:15 AM,-4.9,-10.8,76,30.59,10.0,Calm,Calm,-,N/A,,Clear,0,2013-12-07 16:15:00
10:35 AM,-4.2,-10.1,76,30.58,7.0,Calm,Calm,-,N/A,,Clear,0,2013-12-07 16:35:00
10:55 AM,-3.1,-9.0,76,30.58,10.0,SSE,4.6,-,N/A,,Clear,150,2013-12-07 16:55:00
11:15 AM,-1.7,-7.8,75,30.57,10.0,SE,5.8,-,N/A,,Clear,130,2013-12-07 17:15:00
11:35 AM,-0.4,-7.1,73,30.55,10.0,SE,6.9,-,N/A,,Clear,130,2013-12-07 17:35:00
11:55 AM,1.6,-7.2,67,30.54,10.0,SE,9.2,-,N/A,,Clear,140,2013-12-07 17:55:00
12:15 PM,2.5,-7.1,64,30.53,10.0,SSE,8.1,-,N/A,,Clear,160,2013-12-07 18:15:00
12:35 PM,3.4,-7.1,62,30.52,10.0,SSE,9.2,-,N/A,,Clear,160,2013-12-07 18:35:00
12:55 PM,4.5,-6.2,62,30.51,10.0,SSE,9.2,-,N/A,,Clear,150,2013-12-07 18:55:00
1:15 PM,5.0,-6.2,60,30.50,10.0,South,8.1,-,N/A,,Clear,170,2013-12-07 19:15:00
1:35 PM,5.7,-5.4,60,30.49,10.0,SE,5.8,-,N/A,,Clear,140,2013-12-07 19:35:00
1:55 PM,6.4,-4.9,60,30.48,10.0,SSE,5.8,-,N/A,,Clear,160,2013-12-07 19:55:00
2:15 PM,7.2,-4.2,60,30.46,10.0,SE,6.9,-,N/A,,Scattered Clouds,130,2013-12-07 20:15:00
2:35 PM,7.7,-4.5,57,30.44,10.0,SE,6.9,-,N/A,,Scattered Clouds,140,2013-12-07 20:35:00
2:55 PM,7.7,-5.1,56,30.43,10.0,SE,6.9,-,N/A,,Scattered Clouds,140,2013-12-07 20:55:00
3:15 PM,7.7,-5.1,56,30.42,10.0,ESE,8.1,-,N/A,,Scattered Clouds,120,2013-12-07 21:15:00
3:35 PM,7.7,-5.1,56,30.40,10.0,ESE,8.1,-,N/A,,Clear,120,2013-12-07 21:35:00
3:55 PM,7.7,-5.1,56,30.39,10.0,ESE,9.2,-,N/A,,Clear,120,2013-12-07 21:55:00
4:15 PM,7.3,-5.8,55,30.39,10.0,ESE,8.1,-,N/A,,Clear,110,2013-12-07 22:15:00
4:35 PM,7.2,-5.6,56,30.38,10.0,ESE,8.1,-,N/A,,Mostly Cloudy,120,2013-12-07 22:35:00
4:55 PM,7.2,-5.4,56,30.37,10.0,ESE,6.9,-,N/A,,Mostly Cloudy,120,2013-12-07 22:55:00
5:15 PM,7.2,-5.1,57,30.36,10.0,ESE,6.9,-,N/A,,Mostly Cloudy,110,2013-12-07 23:15:00
5:35 PM,7.5,-4.5,58,30.37,10.0,ESE,6.9,-,N/A,,Overcast,110,2013-12-07 23:35:00
5:55 PM,7.5,-3.8,60,30.37,10.0,East,8.1,-,N/A,,Overcast,90,2013-12-07 23:55:00
6:15 PM,7.3,-2.9,63,30.38,7.0,ESE,8.1,-,N/A,,Overcast,110,2013-12-08 00:15:00
6:35 PM,6.8,-0.6,72,30.38,2.5,ESE,8.1,-,N/A,Snow,Light Snow,110,2013-12-08 00:35:00
6:55 PM,6.6,0.5,76,30.37,2.5,ESE,8.1,-,N/A,Snow,Light Snow,120,2013-12-08 00:55:00
7:15 PM,6.3,0.5,77,30.36,2.5,East,10.4,-,N/A,Snow,Light Snow,100,2013-12-08 01:15:00
7:35 PM,6.3,0.5,77,30.36,3.0,ESE,10.4,-,N/A,Snow,Light Snow,120,2013-12-08 01:35:00
7:55 PM,6.3,0.5,77,30.36,3.0,ESE,10.4,-,N/A,Snow,Light Snow,120,2013-12-08 01:55:00
8:15 PM,6.3,0.5,77,30.36,7.0,ESE,11.5,-,N/A,Snow,Light Snow,120,2013-12-08 02:15:00
8:35 PM,6.3,0.5,77,30.34,4.0,ESE,9.2,-,N/A,Snow,Light Snow,120,2013-12-08 02:35:00
8:55 PM,6.3,0.9,78,30.34,3.0,ESE,10.4,-,N/A,Snow,Light Snow,120,2013-12-08 02:55:00
9:15 PM,6.3,0.9,78,30.33,2.5,ESE,10.4,-,N/A,Snow,Light Snow,120,2013-12-08 03:15:00
9:35 PM,6.4,0.3,76,30.32,3.0,SE,12.7,-,N/A,Snow,Light Snow,130,2013-12-08 03:35:00
9:55 PM,6.3,-0.2,75,30.31,4.0,SE,13.8,17.3,N/A,Snow,Light Snow,130,2013-12-08 03:55:00
10:15 PM,6.3,-0.4,74,30.30,4.0,SE,12.7,17.3,N/A,Snow,Light Snow,130,2013-12-08 04:15:00
10:35 PM,6.3,-1.3,71,30.29,7.0,SE,13.8,18.4,N/A,Snow,Light Snow,130,2013-12-08 04:35:00
10:55 PM,6.3,-1.8,69,30.27,7.0,SE,12.7,-,N/A,Snow,Light Snow,130,2013-12-08 04:55:00
11:15 PM,6.3,-2.0,69,30.27,10.0,SE,13.8,-,N/A,,Overcast,130,2013-12-08 05:15:00
11:35 PM,6.3,-2.2,68,30.26,10.0,SE,11.5,-,N/A,,Overcast,130,2013-12-08 05:35:00
11:55 PM,6.3,-1.5,71,30.25,7.0,SE,12.7,-,N/A,Snow,Light Snow,130,2013-12-08 05:55:00